Showing default

CONNECTA T1.2, 55012

Orbit data source: Space-Track

CONNECTA T1.2, 55012 is a payload satellite owned by Plan-S (TR) in SSO that was launched on Tue, 03 Jan 2023 UTC via an FALCON 9 launch vehicle from the Air Force Eastern Test Range (AFETR). Payload-class satellites include a variety of spacecraft equipped with specific instruments for various scientific and technological missions. These include communications satellites like Starlink; space stations such as the ISS; scientific satellites like the Hubble; Earth observation satellites from companies like Planet Labs, Umbra, and HawkEye 360; GPS; miniature CubeSats for education and research; and military/defense satellites.

Loading next visibility...
Identifier
55012, 2023-001D
Orbit
SSO
Country
Flag of UnknownUnknown / TURK
Related business
Manufacturer
Plan-S
Mission
Operational Commercial Communications
Bus & Motor
CUBESAT 3U, Unknown motor
Mass
4 kg wet, 4 kg dry
Launch date (UTC)
2023-01-03 (3 years ago)
Launch vehicle
FALCON 9
Launch site
Air Force Eastern Test Range (AFETR)
Object type
Payload
Rocket body
Debris
Shape & HBR
Box, 1.2 m
Radar Cross Section
0.035 m², Medium (>0.1 m² and < 1m²)

Expand to show TLE details & history
Last TLE update: 16 hours ago

TLE from 16 hours ago
0 CONNECTA T1.2
1 55012U 23001D   25286.64628474  .00018073  00000-0  48346-3 0  9990
2 55012  97.3637 350.0668 0005992 266.0656  93.9905 15.38089221154514
Epoch: 2025-10-13T15:30Z
TLE epoch observation values (Epoch: 2025-10-13T15:30:39.001Z)
Latitude
0.00007°
Longitude
94.95821°
Altitude
455.163 km
Speed
7.639 km/s
True Right ascension
23h 20m 16s
True Declination
0° 00' 00"
Sunlit
Object was in full shadow at epoch
Visualization orbit readout
Latitude
Unknown
Longitude
Unknown
Altitude
Unknown
Speed
Unknown
Apparent Right ascension
Unknown
Apparent Declination
Unknown
Sunlit
N/A
Visualization observer readout
Local Sidereal Time
02:30:14
Azimuth
Unknown
Elevation
Unknown
Doppler factor
Unknown
Orbital elements
Apogee altitude
452.791 km
Perigee altitude
444.609 km
Semi-major axis
6,826.837 km
Eccentricity
0.0006
Inclination
97.3637°
RAAN
350.0668°
Arg. of periapsis
266.0656°
True anomaly
94.05899°
Mean anomaly
93.9905°
Eccentric anomaly
94.02475°
Mean motion
3.84781 °/min
Orbital period
93.56 mins
BSTAR
0.00048346
Loading maneuver chart data...
Computing Atmospheric mass density...
Loading historical data...
Loading historical data...
Loading historical data...
Loading historical data...
Loading historical data...
Loading historical data...
Loading historical data...

Documentation

Showing up to 5 results
|